Time,TemperatureF,DewpointF,PressureIn,WindDirection,WindDirectionDegrees,WindSpeedMPH,WindSpeedGustMPH,Humidity,HourlyPrecipIn,Conditions,Clouds,dailyrainin,SoftwareType,DateUTC
2013-01-24 00:00:00,46.0,43.8,30.22,NW,315,0.0,0.0,92,0.00,,---,0.00,VWS V14.01,2013-01-24 05:00:00,
2013-01-24 01:00:00,44.9,42.4,30.21,NW,315,0.0,0.0,91,0.00,,---,0.00,VWS V14.01,2013-01-24 06:00:00,
2013-01-24 02:00:00,46.5,41.0,30.18,NW,315,0.0,1.0,81,0.00,,---,0.00,VWS V14.01,2013-01-24 07:00:00,
2013-01-24 03:00:00,42.9,39.6,30.17,NW,315,0.0,0.0,88,0.00,,---,0.00,VWS V14.01,2013-01-24 08:00:00,
2013-01-24 04:00:00,40.5,38.4,30.16,NW,315,0.0,0.0,92,0.00,,---,0.00,VWS V14.01,2013-01-24 09:00:00,
2013-01-24 05:00:00,39.5,37.7,30.18,NW,315,0.0,0.0,93,0.00,,---,0.00,VWS V14.01,2013-01-24 10:00:00,
2013-01-24 06:00:00,38.9,37.3,30.19,NW,315,0.0,0.0,94,0.00,,---,0.00,VWS V14.01,2013-01-24 11:00:00,
2013-01-24 07:00:00,38.5,37.2,30.20,NW,315,0.0,0.0,95,0.00,,---,0.00,VWS V14.01,2013-01-24 12:00:00,
2013-01-24 08:00:00,40.6,39.5,30.21,NW,315,0.0,0.0,96,0.00,,---,0.00,VWS V14.01,2013-01-24 13:00:00,
2013-01-24 09:00:00,51.0,47.0,30.23,North,0,0.0,7.0,86,0.00,,---,0.00,VWS V14.01,2013-01-24 14:00:00,
2013-01-24 10:00:00,60.1,43.4,30.25,North,0,1.0,7.0,54,0.00,,---,0.00,VWS V14.01,2013-01-24 15:00:00,
2013-01-24 11:00:00,66.6,44.6,30.25,NNW,338,3.0,11.0,45,0.00,,---,0.00,VWS V14.01,2013-01-24 16:00:00,
2013-01-24 12:00:00,70.8,44.6,30.22,NNW,338,3.0,11.0,39,0.00,,---,0.00,VWS V14.01,2013-01-24 17:00:00,
2013-01-24 13:00:00,72.0,45.0,30.20,NNW,338,3.0,12.0,38,0.00,,---,0.00,VWS V14.01,2013-01-24 18:00:00,
2013-01-24 14:00:00,72.3,44.6,30.16,NNW,338,3.0,12.0,37,0.00,,---,0.00,VWS V14.01,2013-01-24 19:00:00,
2013-01-24 15:00:00,72.5,44.1,30.15,NNW,338,5.0,14.0,36,0.00,,---,0.00,VWS V14.01,2013-01-24 20:00:00,
2013-01-24 16:00:00,70.9,48.5,30.16,NW,315,2.0,12.0,45,0.00,,---,0.00,VWS V14.01,2013-01-24 21:00:00,
2013-01-24 17:00:00,67.9,46.4,30.17,NW,315,5.0,16.0,46,0.00,,---,0.00,VWS V14.01,2013-01-24 22:00:00,
2013-01-24 18:00:00,64.8,50.2,30.17,NW,315,5.0,13.0,59,0.00,,---,0.00,VWS V14.01,2013-01-24 23:00:00,
2013-01-24 19:00:00,61.8,51.1,30.17,NW,315,2.0,8.0,68,0.00,,---,0.00,VWS V14.01,2013-01-25 00:00:00,
2013-01-24 20:00:00,59.9,51.6,30.19,NW,315,1.0,7.0,74,0.00,,---,0.00,VWS V14.01,2013-01-25 01:00:00,
2013-01-24 21:00:00,57.0,51.9,30.20,NW,315,0.0,2.0,83,0.00,,---,0.00,VWS V14.01,2013-01-25 02:00:00,
2013-01-24 22:00:00,53.9,50.4,30.20,NW,315,0.0,0.0,88,0.00,,---,0.00,VWS V14.01,2013-01-25 03:00:00,
2013-01-24 23:00:00,51.7,49.2,30.20,NW,315,0.0,0.0,91,0.00,,---,0.00,VWS V14.01,2013-01-25 04:00:00,